Regional Weather Roundup
Issued by NWS

Home | Current Version | Previous Version | Text Only | Print | Product List | Glossary Off
Versions: 1 2 3 4 5 6 7 8 9 10 11 12 13 14 15 16 17 18 19 20 21 22 23 24 25 26 27 28 29 30 31 32 33 34 35 36 37 38 39 40 41 42 43 44 45 46 47 48 49 50

000
ASUS45 KCYS 021610
RWRWY

WYOMING REGIONAL WEATHER ROUNDUP
NATIONAL WEATHER SERVICE CHEYENNE WY
1000 AM MDT MON MAY 02 2016

NOTE:  "FAIR" INDICATES FEW OR NO CLOUDS BELOW 12,000 FEET
WITH NO SIGNIFICANT WEATHER AND/OR OBSTRUCTIONS TO VISIBILITY.

WYZ001-021700-
YELLOWSTONE NATIONAL PARK

CITY           SKY/WX    TMP DP  RH WIND       PRES   REMARKS
LK YELLOWSTONE   N/A     33  19  56 E3        30.32S
W YELLOWSTONE  NOT AVBL

$$
WYZ002>013-054>058-071-098>099-021700-
NORTHERN WYOMING

CITY           SKY/WX    TMP DP  RH WIND       PRES   REMARKS
JACKSON        SUNNY     41  23  48 CALM      30.29F
CODY           FAIR      52  27  37 S5        30.21F
GREYBULL       FAIR      52  31  44 S10G17    30.22F
WORLAND        FAIR      51  31  46 S3        30.22F
SHERIDAN       FAIR      58  32  37 N6        30.18S
BUFFALO          N/A    N/A N/A N/A MISG      30.19S
GILLETTE       FAIR      54  32  43 NW14      30.17R
HULETT         FAIR      52  32  46 W7        30.17F
NEWCASTLE      FAIR      50  28  43 NW7       30.17F

$$
WYZ014>020-022>026-101>103-021700-
CENTRAL WYOMING

CITY           SKY/WX    TMP DP  RH WIND       PRES   REMARKS
BIG PINEY      FAIR      40  18  41 SW5       30.30F
PINEDALE       FAIR      41  19  42 NW3       30.30F
DUBOIS         FAIR      41  18  38 CALM      30.25F
LANDER         FAIR      46  27  47 CALM      30.25S
RIVERTON       FAIR      45  27  49 W7        30.26F
CASPER         FAIR      45  28  51 SW15      30.23F
DOUGLAS        FAIR      50  31  48 W18       30.21F

$$
WYZ021-027>030-104>119-021700-
SOUTHERN WYOMING

CITY           SKY/WX    TMP DP  RH WIND       PRES   REMARKS
EVANSTON       FAIR      41  20  43 E8        30.30S
KEMMERER       FAIR      41  23  48 E9        30.31S
FORT BRIDGER   SUNNY     39  25  56 SE6       30.34S WCI  35
ROCK SPRINGS   FAIR      39  23  52 CALM      30.31R
DIXON          FAIR      40  24  52 W5        30.32S
RAWLINS        FAIR      38  17  42 CALM      30.27F
SARATOGA       FAIR      37  21  52 E5        30.28S WCI  34
LARAMIE        FAIR      26  19  74 SW5       30.24F WCI  20
CHEYENNE       FAIR      44  25  47 W7        30.22F
TORRINGTON     FAIR      50  32  50 W8        30.19F
PINE BLUFFS    FAIR      45  28  53 CALM      30.22F

$$



USA.gov is the U.S. government's official web portal to all federal, state and local government web resources and services.